When you browse on this site, cookies collect data to enhance your experience and personalize the content and advertising you see.
Visit our Privacy Policy to learn more. By continuing to use the site, you agree to this use of cookies and data.
  • In United Kingdom
  • List of Countries
  • For 7 days
  • Water Temperature
  • Satellite Maps
  • Weather Map
  • Weather Widgets
  • user-avatar
    Login

    Hourly Weather Mansa

    Today, 22 March, Friday

    Time Temperature Precipitation Wind Pressure Humidity
    00:00 +19°C° 0 mm 0 mps 659 mmHg 88%
    01:00 +18°C° 0 mm 0 mps 658 mmHg 88%
    02:00 +20°C° 0 mm 1 mps 658 mmHg 88%
    03:00 +18°C° 0 mm 0 mps 658 mmHg 88%
    04:00 +17°C° 0 mm 0 mps 658 mmHg 89%
    05:00 +17°C° 0 mm 0 mps 658 mmHg 89%
    06:00 +19°C° 0 mm 0 mps 659 mmHg 87%
    07:00 +20°C° 0 mm 0 mps 659 mmHg 85%
    08:00 +22°C° 0 mm 0 mps 660 mmHg 82%
    09:00 +25°C° 0 mm 1 mps 660 mmHg 76%
    10:00 +27°C° 0 mm 1 mps 660 mmHg 70%
    11:00 +29°C° 0 mm 1 mps 661 mmHg 64%
    12:00 +29°C° 1.2 mm 1 mps 660 mmHg 67%
    13:00 +28°C° 1.2 mm 1 mps 659 mmHg 70%
    14:00 +28°C° 1.2 mm 1 mps 659 mmHg 72%
    15:00 +27°C° 1.3 mm 1 mps 658 mmHg 77%
    16:00 +27°C° 1.3 mm 1 mps 658 mmHg 82%
    17:00 +26°C° 1.3 mm 1 mps 658 mmHg 87%
    18:00 +22°C° 0.3 mm 0 mps 658 mmHg 88%
    19:00 +21°C° 0.3 mm 0 mps 658 mmHg 88%
    20:00 +20°C° 0.3 mm 0 mps 658 mmHg 89%
    21:00 +22°C° 1.3 mm 1 mps 659 mmHg 90%
    22:00 +21°C° 1.3 mm 1 mps 659 mmHg 92%
    23:00 +21°C° 1.3 mm 1 mps 659 mmHg 94%

    Tomorrow, 23 March, Saturday

    Time Temperature Precipitation Wind Pressure Humidity
    00:00 +21°C° 0.2 mm 1 mps 659 mmHg 94%
    01:00 +20°C° 0.2 mm 2 mps 659 mmHg 95%
    02:00 +20°C° 0.2 mm 2 mps 659 mmHg 95%
    03:00 +20°C° 0.4 mm 2 mps 659 mmHg 96%
    04:00 +19°C° 0.4 mm 2 mps 658 mmHg 97%
    05:00 +19°C° 0.4 mm 2 mps 658 mmHg 97%
    06:00 +20°C° 0 mm 3 mps 659 mmHg 96%
    07:00 +21°C° 0 mm 3 mps 659 mmHg 94%
    08:00 +21°C° 0 mm 3 mps 660 mmHg 93%
    09:00 +24°C° 0.1 mm 3 mps 660 mmHg 86%
    10:00 +26°C° 0.1 mm 3 mps 661 mmHg 79%
    11:00 +27°C° 0.1 mm 3 mps 661 mmHg 72%
    12:00 +27°C° 1.4 mm 3 mps 660 mmHg 76%
    13:00 +27°C° 1.4 mm 3 mps 659 mmHg 81%
    14:00 +26°C° 1.4 mm 3 mps 658 mmHg 85%
    15:00 +26°C° 1.3 mm 2 mps 658 mmHg 87%
    16:00 +25°C° 1.3 mm 2 mps 658 mmHg 89%
    17:00 +25°C° 1.3 mm 1 mps 658 mmHg 91%
    18:00 +24°C° 2.9 mm 2 mps 658 mmHg 92%
    19:00 +23°C° 2.9 mm 2 mps 659 mmHg 92%
    20:00 +21°C° 2.9 mm 2 mps 659 mmHg 93%
    21:00 +20°C° 0.2 mm 2 mps 659 mmHg 94%
    22:00 +20°C° 0.2 mm 2 mps 659 mmHg 95%
    23:00 +20°C° 0.2 mm 2 mps 659 mmHg 96%

    Day after tomorrow, 24 March, Sunday

    Time Temperature Precipitation Wind Pressure Humidity
    00:00 +20°C° 0 mm 2 mps 659 mmHg 96%
    01:00 +20°C° 0 mm 2 mps 659 mmHg 96%
    02:00 +20°C° 0 mm 2 mps 658 mmHg 96%
    03:00 +19°C° 0 mm 2 mps 658 mmHg 96%
    04:00 +19°C° 0 mm 2 mps 658 mmHg 96%
    05:00 +19°C° 0 mm 2 mps 658 mmHg 97%
    06:00 +20°C° 0 mm 3 mps 659 mmHg 95%
    07:00 +20°C° 0 mm 3 mps 659 mmHg 94%
    08:00 +21°C° 0 mm 3 mps 660 mmHg 93%
    09:00 +22°C° 0 mm 3 mps 660 mmHg 87%
    10:00 +25°C° 0 mm 3 mps 661 mmHg 81%
    11:00 +26°C° 0 mm 3 mps 661 mmHg 75%
    12:00 +26°C° 0.9 mm 2 mps 660 mmHg 76%
    13:00 +27°C° 0.9 mm 2 mps 659 mmHg 77%
    14:00 +27°C° 0.9 mm 1 mps 658 mmHg 77%
    15:00 +26°C° 1.9 mm 1 mps 658 mmHg 82%
    16:00 +26°C° 1.9 mm 1 mps 657 mmHg 86%
    17:00 +25°C° 1.9 mm 1 mps 657 mmHg 90%
    18:00 +24°C° 1.8 mm 1 mps 657 mmHg 91%
    19:00 +23°C° 1.8 mm 1 mps 658 mmHg 92%
    20:00 +21°C° 1.8 mm 2 mps 658 mmHg 93%
    21:00 +20°C° 0.1 mm 2 mps 658 mmHg 94%
    22:00 +21°C° 0.1 mm 1 mps 659 mmHg 95%
    23:00 +21°C° 0.1 mm 1 mps 659 mmHg 96%

    25 March, Monday

    Time Temperature Precipitation Wind Pressure Humidity
    00:00 +21°C° 0.2 mm 1 mps 659 mmHg 96%
    01:00 +20°C° 0.2 mm 2 mps 658 mmHg 97%
    02:00 +20°C° 0.2 mm 2 mps 658 mmHg 97%
    03:00 +20°C° 0.4 mm 2 mps 658 mmHg 97%
    04:00 +19°C° 0.4 mm 2 mps 658 mmHg 97%
    05:00 +19°C° 0.4 mm 2 mps 658 mmHg 97%
    06:00 +21°C° 0.1 mm 1 mps 658 mmHg 97%
    07:00 +21°C° 0.1 mm 1 mps 659 mmHg 97%
    08:00 +21°C° 0.1 mm 1 mps 659 mmHg 97%
    09:00 +23°C° 0.2 mm 1 mps 660 mmHg 91%
    10:00 +24°C° 0.2 mm 1 mps 660 mmHg 86%
    11:00 +26°C° 0.2 mm 1 mps 660 mmHg 80%
    12:00 +27°C° 0.1 mm 1 mps 660 mmHg 74%
    13:00 +29°C° 0.1 mm 1 mps 659 mmHg 69%
    14:00 +28°C° 0.1 mm 0 mps 659 mmHg 63%
    15:00 +29°C° 0.2 mm 1 mps 658 mmHg 69%
    16:00 +28°C° 0.2 mm 1 mps 657 mmHg 75%
    17:00 +27°C° 0.2 mm 1 mps 657 mmHg 81%
    18:00 +25°C° 0.7 mm 1 mps 657 mmHg 86%
    19:00 +23°C° 0.7 mm 1 mps 657 mmHg 90%
    20:00 +22°C° 0.7 mm 1 mps 658 mmHg 95%
    21:00 +21°C° 1.6 mm 1 mps 658 mmHg 94%
    22:00 +21°C° 1.6 mm 1 mps 658 mmHg 93%
    23:00 +21°C° 1.6 mm 1 mps 659 mmHg 92%

    26 March, Tuesday

    Time Temperature Precipitation Wind Pressure Humidity
    00:00 +21°C° 0.1 mm 1 mps 658 mmHg 92%
    01:00 +21°C° 0.1 mm 1 mps 658 mmHg 92%
    02:00 +21°C° 0.1 mm 1 mps 657 mmHg 93%
    03:00 +19°C° 0 mm 0 mps 658 mmHg 93%
    04:00 +19°C° 0 mm 0 mps 658 mmHg 93%
    05:00 +19°C° 0 mm 0 mps 658 mmHg 93%
    06:00 +19°C° 0 mm 0 mps 659 mmHg 93%
    07:00 +20°C° 0 mm 0 mps 660 mmHg 92%
    08:00 +20°C° 0 mm 0 mps 660 mmHg 92%
    09:00 +23°C° 0.4 mm 0 mps 661 mmHg 84%
    10:00 +25°C° 0.4 mm 0 mps 661 mmHg 77%
    11:00 +29°C° 0.4 mm 1 mps 661 mmHg 69%
    12:00 +29°C° 0.1 mm 1 mps 661 mmHg 65%
    13:00 +30°C° 0.1 mm 1 mps 660 mmHg 61%
    14:00 +31°C° 0.1 mm 1 mps 659 mmHg 57%
    15:00 +29°C° 1.2 mm 1 mps 659 mmHg 67%
    16:00 +28°C° 1.2 mm 1 mps 659 mmHg 78%
    17:00 +26°C° 1.2 mm 1 mps 658 mmHg 88%
    18:00 +25°C° 0.2 mm 1 mps 659 mmHg 90%
    19:00 +23°C° 0.2 mm 1 mps 659 mmHg 91%
    20:00 +22°C° 0.2 mm 1 mps 659 mmHg 93%
    21:00 +22°C° 0.4 mm 1 mps 659 mmHg 92%
    22:00 +19°C° 0.4 mm 0 mps 660 mmHg 91%
    23:00 +19°C° 0.4 mm 0 mps 660 mmHg 91%

    27 March, Wednesday

    Time Temperature Precipitation Wind Pressure Humidity
    00:00 +19°C° 0.7 mm 0 mps 659 mmHg 92%
    01:00 +21°C° 0.7 mm 1 mps 659 mmHg 92%
    02:00 +20°C° 0.7 mm 1 mps 659 mmHg 93%
    03:00 +20°C° 0 mm 1 mps 659 mmHg 93%
    04:00 +20°C° 0 mm 1 mps 659 mmHg 93%
    05:00 +20°C° 0 mm 1 mps 659 mmHg 93%
    06:00 +20°C° 0.2 mm 1 mps 660 mmHg 93%
    07:00 +21°C° 0.2 mm 1 mps 661 mmHg 92%
    08:00 +21°C° 0.2 mm 2 mps 661 mmHg 91%
    09:00 +24°C° 0.3 mm 2 mps 662 mmHg 84%
    10:00 +26°C° 0.3 mm 2 mps 662 mmHg 78%
    11:00 +27°C° 0.3 mm 3 mps 662 mmHg 72%
    12:00 +28°C° 0.7 mm 3 mps 661 mmHg 70%
    13:00 +28°C° 0.7 mm 2 mps 661 mmHg 69%
    14:00 +29°C° 0.7 mm 2 mps 660 mmHg 67%
    15:00 +28°C° 0.5 mm 2 mps 660 mmHg 71%
    16:00 +28°C° 0.5 mm 2 mps 660 mmHg 75%
    17:00 +27°C° 0.5 mm 1 mps 660 mmHg 78%
    18:00 +26°C° 0.4 mm 1 mps 660 mmHg 81%
    19:00 +24°C° 0.4 mm 1 mps 661 mmHg 85%
    20:00 +22°C° 0.4 mm 1 mps 661 mmHg 88%
    21:00 +22°C° 0.6 mm 1 mps 661 mmHg 89%
    22:00 +22°C° 0.6 mm 1 mps 661 mmHg 91%
    23:00 +21°C° 0.6 mm 1 mps 662 mmHg 92%
    Show more